Wetterdaten: Sonntag, 12.05.2013
Datum Zeit Temperatur Luftfeuchte Luftdruck Regen Wind Richtung Richtung Taupunkt Windchill Windben
12.05.2013 00:00 6,6 C 96 % 1018,8 hPa 0,0 l/m 2,6 km/h (1 Bft) SO 135 6,0 C 6,8 C 3,4 km/h (1 Bft)
12.05.2013 00:05 6,6 C 96 % 1018,8 hPa 0,0 l/m 2,4 km/h (1 Bft) SO 135 6,0 C 6,8 C 2,3 km/h (1 Bft)
12.05.2013 00:10 6,6 C 96 % 1018,8 hPa 0,0 l/m 2,3 km/h (1 Bft) W-SW 247 6,0 C 6,6 C 5,3 km/h (1 Bft)
12.05.2013 00:15 6,5 C 96 % 1018,8 hPa 0,0 l/m 2,1 km/h (1 Bft) NO 45 5,9 C 6,6 C 2,7 km/h (1 Bft)
12.05.2013 00:20 6,5 C 96 % 1018,8 hPa 0,0 l/m 2,1 km/h (1 Bft) SO 135 5,9 C 6,6 C 3,5 km/h (1 Bft)
12.05.2013 00:25 6,5 C 96 % 1018,9 hPa 0,0 l/m 2,1 km/h (1 Bft) S-SO 157 5,9 C 6,6 C 3,4 km/h (1 Bft)
12.05.2013 00:30 6,4 C 96 % 1018,9 hPa 0,0 l/m 1,1 km/h (1 Bft) W 270 5,8 C 6,5 C 0,0 km/h (0 Bft)
12.05.2013 00:35 6,5 C 96 % 1018,9 hPa 0,0 l/m 0,8 km/h (0 Bft) NO 45 5,9 C 6,4 C 2,3 km/h (1 Bft)
12.05.2013 00:40 6,4 C 96 % 1018,9 hPa 0,0 l/m 0,8 km/h (0 Bft) O-SO 112 5,8 C 6,4 C 0,0 km/h (0 Bft)
12.05.2013 00:45 6,4 C 96 % 1018,7 hPa 0,0 l/m 0,5 km/h (0 Bft) N-NO 22 5,8 C 6,3 C 0,0 km/h (0 Bft)
12.05.2013 00:50 6,4 C 96 % 1018,7 hPa 0,0 l/m 0,8 km/h (0 Bft) NO 45 5,8 C 6,3 C 1,6 km/h (1 Bft)
12.05.2013 00:55 6,3 C 96 % 1018,7 hPa 0,0 l/m 0,6 km/h (0 Bft) O-SO 112 5,7 C 6,3 C 0,0 km/h (0 Bft)
12.05.2013 01:00 6,3 C 96 % 1018,7 hPa 0,0 l/m 0,2 km/h (0 Bft) S-SW 202 5,7 C 6,3 C 0,0 km/h (0 Bft)
12.05.2013 01:05 6,3 C 96 % 1018,7 hPa 0,0 l/m 0,2 km/h (0 Bft) W-NW 292 5,7 C 6,3 C 0,0 km/h (0 Bft)
12.05.2013 01:10 6,3 C 96 % 1018,7 hPa 0,0 l/m 0,5 km/h (0 Bft) O-NO 67 5,7 C 6,3 C 0,0 km/h (0 Bft)
12.05.2013 01:15 6,3 C 96 % 1018,7 hPa 0,0 l/m 0,8 km/h (0 Bft) NO 45 5,7 C 6,2 C 2,4 km/h (1 Bft)
12.05.2013 01:20 6,3 C 96 % 1018,7 hPa 0,0 l/m 0,5 km/h (0 Bft) N 360 5,7 C 6,2 C 0,0 km/h (0 Bft)
12.05.2013 01:25 6,2 C 96 % 1018,7 hPa 0,0 l/m 0,2 km/h (0 Bft) W-SW 247 5,6 C 6,1 C 0,0 km/h (0 Bft)
12.05.2013 01:30 6,2 C 96 % 1018,7 hPa 0,0 l/m 0,2 km/h (0 Bft) NO 45 5,6 C 6,1 C 0,0 km/h (0 Bft)
12.05.2013 01:35 6,2 C 96 % 1018,7 hPa 0,0 l/m 0,2 km/h (0 Bft) NO 45 5,6 C 6,1 C 0,0 km/h (0 Bft)
12.05.2013 01:40 6,3 C 96 % 1018,7 hPa 0,0 l/m 0,5 km/h (0 Bft) N 360 5,7 C 6,1 C 1,6 km/h (1 Bft)
12.05.2013 01:45 6,2 C 96 % 1018,5 hPa 0,0 l/m 0,3 km/h (0 Bft) NO 45 5,6 C 6,1 C 0,0 km/h (0 Bft)
12.05.2013 01:50 6,1 C 96 % 1018,5 hPa 0,0 l/m 0,5 km/h (0 Bft) O 90 5,5 C 6,0 C 0,0 km/h (0 Bft)
12.05.2013 01:55 6,3 C 96 % 1018,5 hPa 0,0 l/m 0,5 km/h (0 Bft) SO 135 5,7 C 6,0 C 2,9 km/h (1 Bft)
12.05.2013 02:00 6,4 C 96 % 1018,5 hPa 0,0 l/m 0,6 km/h (0 Bft) O 90 5,8 C 6,2 C 2,3 km/h (1 Bft)
12.05.2013 02:05 6,3 C 96 % 1018,2 hPa 0,0 l/m 1,0 km/h (0 Bft) SO 135 5,7 C 6,3 C 2,3 km/h (1 Bft)
12.05.2013 02:10 6,3 C 96 % 1018,2 hPa 0,0 l/m 1,0 km/h (0 Bft) SO 135 5,7 C 6,3 C 0,0 km/h (0 Bft)
12.05.2013 02:15 6,2 C 96 % 1018,2 hPa 0,0 l/m 0,6 km/h (0 Bft) O 90 5,6 C 6,3 C 0,0 km/h (0 Bft)
12.05.2013 02:20 6,3 C 96 % 1018,2 hPa 0,0 l/m 0,6 km/h (0 Bft) S 180 5,7 C 6,2 C 2,6 km/h (1 Bft)
12.05.2013 02:25 6,4 C 96 % 1018,1 hPa 0,0 l/m 1,3 km/h (1 Bft) S 180 5,8 C 6,3 C 1,6 km/h (1 Bft)
12.05.2013 02:30 6,4 C 96 % 1018,1 hPa 0,0 l/m 1,6 km/h (1 Bft) S-SO 157 5,8 C 6,4 C 0,0 km/h (0 Bft)
12.05.2013 02:35 6,3 C 96 % 1018,1 hPa 0,0 l/m 1,3 km/h (1 Bft) O 90 5,7 C 6,4 C 0,0 km/h (0 Bft)
12.05.2013 02:40 6,2 C 96 % 1018,1 hPa 0,0 l/m 1,4 km/h (1 Bft) NO 45 5,6 C 6,3 C 1,9 km/h (1 Bft)
12.05.2013 02:45 6,1 C 96 % 1017,9 hPa 0,0 l/m 1,0 km/h (0 Bft) O-NO 67 5,5 C 6,2 C 0,0 km/h (0 Bft)
12.05.2013 02:50 5,9 C 96 % 1017,9 hPa 0,0 l/m 0,3 km/h (0 Bft) O-NO 67 5,3 C 5,9 C 0,0 km/h (0 Bft)
12.05.2013 02:55 5,8 C 96 % 1017,9 hPa 0,0 l/m 0,2 km/h (0 Bft) O 90 5,2 C 5,7 C 1,6 km/h (1 Bft)
12.05.2013 03:00 5,6 C 96 % 1017,9 hPa 0,0 l/m 0,3 km/h (0 Bft) O 90 5,0 C 5,4 C 0,0 km/h (0 Bft)
12.05.2013 03:05 5,5 C 96 % 1017,8 hPa 0,0 l/m 0,2 km/h (0 Bft) O-NO 67 4,9 C 5,3 C 0,0 km/h (0 Bft)
12.05.2013 03:10 5,5 C 96 % 1017,8 hPa 0,0 l/m 0,0 km/h (0 Bft) O 90 4,9 C 5,0 C 0,0 km/h (0 Bft)
12.05.2013 03:15 5,1 C 96 % 1017,8 hPa 0,0 l/m 0,3 km/h (0 Bft) NO 45 4,5 C 4,8 C 2,1 km/h (1 Bft)
12.05.2013 03:20 5,1 C 96 % 1017,8 hPa 0,0 l/m 1,0 km/h (0 Bft) NO 45 4,5 C 4,6 C 3,4 km/h (1 Bft)
12.05.2013 03:25 5,2 C 96 % 1017,8 hPa 0,0 l/m 1,8 km/h (1 Bft) O-NO 67 4,6 C 4,6 C 3,1 km/h (1 Bft)
12.05.2013 03:30 5,1 C 96 % 1017,8 hPa 0,0 l/m 2,6 km/h (1 Bft) NO 45 4,5 C 4,7 C 2,4 km/h (1 Bft)
12.05.2013 03:35 5,1 C 96 % 1017,8 hPa 0,0 l/m 2,4 km/h (1 Bft) O 90 4,5 C 4,6 C 1,8 km/h (1 Bft)
12.05.2013 03:40 4,8 C 96 % 1017,8 hPa 0,0 l/m 1,8 km/h (1 Bft) O 90 4,2 C 4,4 C 0,0 km/h (0 Bft)
12.05.2013 03:45 4,8 C 96 % 1017,6 hPa 0,0 l/m 1,3 km/h (1 Bft) O 90 4,2 C 4,2 C 0,0 km/h (0 Bft)
12.05.2013 03:50 4,7 C 96 % 1017,6 hPa 0,0 l/m 1,6 km/h (1 Bft) NO 45 4,1 C 4,0 C 2,4 km/h (1 Bft)
12.05.2013 03:55 4,7 C 96 % 1017,6 hPa 0,0 l/m 2,4 km/h (1 Bft) NO 45 4,1 C 4,0 C 3,4 km/h (1 Bft)
12.05.2013 04:00 4,3 C 96 % 1017,6 hPa 0,0 l/m 2,6 km/h (1 Bft) O-SO 112 3,7 C 3,9 C 2,4 km/h (1 Bft)
12.05.2013 04:05 4,3 C 96 % 1017,4 hPa 0,0 l/m 2,3 km/h (1 Bft) NO 45 3,7 C 3,9 C 2,7 km/h (1 Bft)
12.05.2013 04:10 4,2 C 96 % 1017,4 hPa 0,0 l/m 1,6 km/h (1 Bft) NO 45 3,6 C 3,8 C 3,2 km/h (1 Bft)
12.05.2013 04:15 4,3 C 96 % 1017,4 hPa 0,0 l/m 1,6 km/h (1 Bft) NO 45 3,7 C 3,8 C 0,0 km/h (0 Bft)
12.05.2013 04:20 4,2 C 96 % 1017,4 hPa 0,0 l/m 1,4 km/h (1 Bft) N-NO 22 3,6 C 3,7 C 0,0 km/h (0 Bft)
12.05.2013 04:25 4,0 C 96 % 1017,2 hPa 0,0 l/m 1,1 km/h (1 Bft) N-NO 22 3,4 C 3,5 C 2,4 km/h (1 Bft)
12.05.2013 04:30 3,6 C 96 % 1017,2 hPa 0,0 l/m 0,3 km/h (0 Bft) NO 45 3,0 C 3,3 C 0,0 km/h (0 Bft)
12.05.2013 04:35 3,9 C 96 % 1017,2 hPa 0,0 l/m 0,2 km/h (0 Bft) N-NO 22 3,3 C 3,1 C 0,0 km/h (0 Bft)
12.05.2013 04:40 3,4 C 96 % 1017,2 hPa 0,0 l/m 0,0 km/h (0 Bft) W-NW 292 2,8 C 3,0 C 0,0 km/h (0 Bft)
12.05.2013 04:45 3,3 C 96 % 1017,1 hPa 0,0 l/m 0,0 km/h (0 Bft) W 270 2,7 C 2,8 C 0,0 km/h (0 Bft)
12.05.2013 04:50 3,1 C 96 % 1017,1 hPa 0,0 l/m 0,0 km/h (0 Bft) O-SO 112 2,5 C 2,6 C 0,0 km/h (0 Bft)
12.05.2013 04:55 3,0 C 96 % 1017,1 hPa 0,0 l/m 0,0 km/h (0 Bft) O-SO 112 2,4 C 2,3 C 0,0 km/h (0 Bft)
12.05.2013 05:00 2,9 C 97 % 1017,1 hPa 0,0 l/m 0,0 km/h (0 Bft) W-SW 247 2,5 C 2,3 C 0,0 km/h (0 Bft)
12.05.2013 05:05 2,6 C 97 % 1017,1 hPa 0,0 l/m 0,0 km/h (0 Bft) W-SW 247 2,2 C 2,1 C 0,0 km/h (0 Bft)
12.05.2013 05:10 2,9 C 97 % 1017,1 hPa 0,0 l/m 0,0 km/h (0 Bft) N 360 2,5 C 2,0 C 0,0 km/h (0 Bft)
12.05.2013 05:15 2,8 C 97 % 1017,1 hPa 0,0 l/m 0,2 km/h (0 Bft) N-NO 22 2,4 C 2,2 C 0,0 km/h (0 Bft)
12.05.2013 05:20 2,9 C 97 % 1017,1 hPa 0,0 l/m 0,2 km/h (0 Bft) S 180 2,5 C 2,3 C 0,0 km/h (0 Bft)
12.05.2013 05:25 3,0 C 96 % 1016,8 hPa 0,0 l/m 0,0 km/h (0 Bft) O 90 2,4 C 2,3 C 0,0 km/h (0 Bft)
12.05.2013 05:30 3,1 C 96 % 1016,8 hPa 0,0 l/m 0,0 km/h (0 Bft) W-SW 247 2,5 C 2,3 C 0,0 km/h (0 Bft)
12.05.2013 05:35 3,1 C 96 % 1016,8 hPa 0,0 l/m 0,0 km/h (0 Bft) S 180 2,5 C 2,4 C 0,0 km/h (0 Bft)
12.05.2013 05:40 3,0 C 96 % 1016,8 hPa 0,0 l/m 0,0 km/h (0 Bft) O-NO 67 2,4 C 2,3 C 0,0 km/h (0 Bft)
12.05.2013 05:45 3,1 C 96 % 1017,2 hPa 0,0 l/m 0,0 km/h (0 Bft) S-SW 202 2,5 C 2,3 C 0,0 km/h (0 Bft)
12.05.2013 05:50 2,9 C 97 % 1017,2 hPa 0,0 l/m 0,0 km/h (0 Bft) N-NO 22 2,5 C 2,3 C 0,0 km/h (0 Bft)
12.05.2013 05:55 2,7 C 97 % 1017,2 hPa 0,0 l/m 0,0 km/h (0 Bft) N-NW 337 2,3 C 2,2 C 0,0 km/h (0 Bft)
12.05.2013 06:00 2,9 C 97 % 1017,2 hPa 0,0 l/m 0,8 km/h (0 Bft) NO 45 2,5 C 2,1 C 1,6 km/h (1 Bft)
12.05.2013 06:05 2,8 C 97 % 1016,9 hPa 0,0 l/m 0,8 km/h (0 Bft) N-NO 22 2,4 C 2,2 C 0,0 km/h (0 Bft)
12.05.2013 06:10 2,6 C 97 % 1016,9 hPa 0,0 l/m 0,2 km/h (0 Bft) S-SO 157 2,2 C 2,2 C 0,0 km/h (0 Bft)
12.05.2013 06:15 2,6 C 97 % 1016,9 hPa 0,0 l/m 0,2 km/h (0 Bft) NO 45 2,2 C 2,2 C 0,0 km/h (0 Bft)
12.05.2013 06:20 2,8 C 97 % 1016,9 hPa 0,0 l/m 1,0 km/h (0 Bft) N-NO 22 2,4 C 2,3 C 1,9 km/h (1 Bft)
12.05.2013 06:25 2,9 C 97 % 1017,2 hPa 0,0 l/m 1,0 km/h (0 Bft) N-NO 22 2,5 C 2,4 C 0,0 km/h (0 Bft)
12.05.2013 06:30 3,2 C 97 % 1017,2 hPa 0,0 l/m 0,8 km/h (0 Bft) O-SO 112 2,8 C 2,7 C 2,4 km/h (1 Bft)
12.05.2013 06:35 4,8 C 96 % 1017,2 hPa 0,0 l/m 1,1 km/h (1 Bft) O-NO 67 4,2 C 3,1 C 0,0 km/h (0 Bft)
12.05.2013 06:40 6,7 C 95 % 1017,2 hPa 0,0 l/m 0,8 km/h (0 Bft) S 180 6,0 C 5,1 C 0,0 km/h (0 Bft)
12.05.2013 06:45 5,8 C 96 % 1017,4 hPa 0,0 l/m 0,2 km/h (0 Bft) O-NO 67 5,2 C 5,9 C 0,0 km/h (0 Bft)
12.05.2013 06:50 4,7 C 96 % 1017,4 hPa 0,0 l/m 0,0 km/h (0 Bft) NO 45 4,1 C 5,5 C 0,0 km/h (0 Bft)
12.05.2013 06:55 4,7 C 96 % 1017,4 hPa 0,0 l/m 0,0 km/h (0 Bft) N-NW 337 4,1 C 5,2 C 0,0 km/h (0 Bft)
12.05.2013 07:00 5,0 C 96 % 1017,4 hPa 0,0 l/m 0,0 km/h (0 Bft) NO 45 4,4 C 5,2 C 0,0 km/h (0 Bft)
12.05.2013 07:05 5,2 C 96 % 1017,2 hPa 0,0 l/m 0,0 km/h (0 Bft) N 360 4,6 C 5,3 C 0,0 km/h (0 Bft)
12.05.2013 07:10 5,7 C 96 % 1017,2 hPa 0,0 l/m 0,3 km/h (0 Bft) O-SO 112 5,1 C 5,5 C 0,0 km/h (0 Bft)
12.05.2013 07:15 5,9 C 96 % 1017,2 hPa 0,0 l/m 0,5 km/h (0 Bft) O 90 5,3 C 5,7 C 0,0 km/h (0 Bft)
12.05.2013 07:20 6,1 C 95 % 1017,2 hPa 0,0 l/m 0,2 km/h (0 Bft) SO 135 5,4 C 5,9 C 0,0 km/h (0 Bft)
12.05.2013 07:25 6,4 C 95 % 1017,2 hPa 0,0 l/m 0,2 km/h (0 Bft) N-NO 22 5,7 C 6,1 C 0,0 km/h (0 Bft)
12.05.2013 07:30 6,7 C 95 % 1017,2 hPa 0,0 l/m 1,1 km/h (1 Bft) S 180 6,0 C 6,3 C 4,0 km/h (1 Bft)
12.05.2013 07:35 6,9 C 95 % 1017,2 hPa 0,0 l/m 1,9 km/h (1 Bft) S 180 6,2 C 6,4 C 3,2 km/h (1 Bft)
12.05.2013 07:40 7,1 C 95 % 1017,2 hPa 0,0 l/m 1,9 km/h (1 Bft) W-SW 247 6,4 C 6,7 C 3,2 km/h (1 Bft)
12.05.2013 07:45 7,3 C 95 % 1017,3 hPa 0,0 l/m 1,9 km/h (1 Bft) SO 135 6,6 C 6,8 C 1,6 km/h (1 Bft)
12.05.2013 07:50 7,3 C 95 % 1017,3 hPa 0,0 l/m 1,8 km/h (1 Bft) S-SW 202 6,6 C 7,0 C 1,6 km/h (1 Bft)
12.05.2013 07:55 7,6 C 95 % 1017,3 hPa 0,0 l/m 0,8 km/h (0 Bft) W-SW 247 6,9 C 7,2 C 0,0 km/h (0 Bft)
12.05.2013 08:00 7,9 C 95 % 1017,3 hPa 0,0 l/m 0,3 km/h (0 Bft) SW 225 7,1 C 7,5 C 0,0 km/h (0 Bft)
12.05.2013 08:05 8,0 C 95 % 1017,3 hPa 0,0 l/m 0,6 km/h (0 Bft) S 180 7,2 C 7,8 C 1,6 km/h (1 Bft)
12.05.2013 08:10 8,0 C 94 % 1017,3 hPa 0,0 l/m 1,1 km/h (1 Bft) S 180 7,1 C 8,1 C 3,5 km/h (1 Bft)
12.05.2013 08:15 8,0 C 94 % 1017,3 hPa 0,0 l/m 1,8 km/h (1 Bft) W-NW 292 7,1 C 8,1 C 2,1 km/h (1 Bft)
12.05.2013 08:20 8,8 C 94 % 1017,3 hPa 0,0 l/m 1,6 km/h (1 Bft) S 180 7,9 C 8,6 C 0,0 km/h (0 Bft)
12.05.2013 08:25 9,2 C 94 % 1017,3 hPa 0,0 l/m 1,6 km/h (1 Bft) SO 135 8,3 C 9,2 C 3,5 km/h (1 Bft)
12.05.2013 08:30 8,6 C 94 % 1017,3 hPa 0,0 l/m 2,1 km/h (1 Bft) W-SW 247 7,7 C 9,3 C 3,4 km/h (1 Bft)
12.05.2013 08:35 8,8 C 94 % 1017,3 hPa 0,0 l/m 1,6 km/h (1 Bft) O-SO 112 7,9 C 9,2 C 1,6 km/h (1 Bft)
12.05.2013 08:40 9,0 C 93 % 1017,3 hPa 0,0 l/m 1,0 km/h (0 Bft) S-SW 202 7,9 C 9,4 C 2,6 km/h (1 Bft)
12.05.2013 08:45 9,0 C 93 % 1017,6 hPa 0,0 l/m 0,8 km/h (0 Bft) S 180 7,9 C 9,6 C 3,2 km/h (1 Bft)
12.05.2013 08:50 9,1 C 93 % 1017,6 hPa 0,0 l/m 1,4 km/h (1 Bft) S 180 8,0 C 9,6 C 0,0 km/h (0 Bft)
12.05.2013 08:55 9,2 C 93 % 1017,6 hPa 0,0 l/m 1,9 km/h (1 Bft) S-SO 157 8,1 C 9,9 C 3,9 km/h (1 Bft)
12.05.2013 09:00 9,5 C 93 % 1017,6 hPa 0,0 l/m 1,6 km/h (1 Bft) S-SW 202 8,4 C 10,0 C 0,0 km/h (0 Bft)
12.05.2013 09:05 9,7 C 93 % 1017,4 hPa 0,0 l/m 1,8 km/h (1 Bft) S-SO 157 8,6 C 10,2 C 2,4 km/h (1 Bft)
12.05.2013 09:10 9,9 C 92 % 1017,4 hPa 0,0 l/m 1,0 km/h (0 Bft) S 180 8,7 C 10,6 C 0,0 km/h (0 Bft)
12.05.2013 09:15 9,9 C 91 % 1017,4 hPa 0,0 l/m 1,3 km/h (1 Bft) W-SW 247 8,5 C 10,8 C 2,1 km/h (1 Bft)
12.05.2013 09:20 9,9 C 89 % 1017,4 hPa 0,0 l/m 2,3 km/h (1 Bft) S 180 8,2 C 10,9 C 4,2 km/h (1 Bft)
12.05.2013 09:25 9,8 C 87 % 1017,6 hPa 0,0 l/m 2,6 km/h (1 Bft) S 180 7,7 C 10,9 C 4,5 km/h (1 Bft)
12.05.2013 09:30 10,1 C 87 % 1017,6 hPa 0,0 l/m 2,7 km/h (1 Bft) S 180 8,0 C 10,9 C 4,2 km/h (1 Bft)
12.05.2013 09:35 10,3 C 87 % 1017,6 hPa 0,0 l/m 2,9 km/h (1 Bft) S 180 8,2 C 11,0 C 4,8 km/h (1 Bft)
12.05.2013 09:40 10,0 C 82 % 1017,6 hPa 0,0 l/m 4,8 km/h (1 Bft) SO 135 7,1 C 10,8 C 14,2 km/h (3 Bft)
12.05.2013 09:45 10,2 C 84 % 1017,6 hPa 0,0 l/m 5,6 km/h (1 Bft) S-SW 202 7,6 C 10,6 C 5,3 km/h (1 Bft)
12.05.2013 09:50 10,3 C 84 % 1017,6 hPa 0,0 l/m 4,7 km/h (1 Bft) S-SW 202 7,7 C 10,8 C 5,5 km/h (1 Bft)
12.05.2013 09:55 10,1 C 82 % 1017,6 hPa 0,0 l/m 5,5 km/h (1 Bft) S 180 7,2 C 10,5 C 8,5 km/h (2 Bft)
12.05.2013 10:00 10,3 C 81 % 1017,6 hPa 0,0 l/m 5,3 km/h (1 Bft) S 180 7,2 C 10,6 C 4,5 km/h (1 Bft)
12.05.2013 10:05 10,4 C 81 % 1017,5 hPa 0,0 l/m 5,0 km/h (1 Bft) S-SW 202 7,3 C 10,9 C 10,5 km/h (2 Bft)
12.05.2013 10:10 10,7 C 81 % 1017,5 hPa 0,0 l/m 4,2 km/h (1 Bft) S 180 7,6 C 11,4 C 6,4 km/h (2 Bft)
12.05.2013 10:15 10,7 C 80 % 1017,5 hPa 0,0 l/m 4,0 km/h (1 Bft) S-SO 157 7,4 C 11,5 C 5,3 km/h (1 Bft)
12.05.2013 10:20 13,7 C 69 % 1017,5 hPa 0,0 l/m 5,0 km/h (1 Bft) S-SW 202 8,1 C 12,7 C 11,7 km/h (2 Bft)
12.05.2013 10:25 13,4 C 74 % 1017,6 hPa 0,0 l/m 5,1 km/h (1 Bft) S 180 8,9 C 13,8 C 4,5 km/h (1 Bft)
12.05.2013 10:30 12,9 C 71 % 1017,6 hPa 0,0 l/m 5,1 km/h (1 Bft) S-SO 157 7,8 C 14,1 C 5,6 km/h (1 Bft)
12.05.2013 10:35 13,2 C 73 % 1017,6 hPa 0,0 l/m 4,7 km/h (1 Bft) S-SW 202 8,5 C 14,3 C 3,4 km/h (1 Bft)
12.05.2013 10:40 12,9 C 67 % 1017,6 hPa 0,0 l/m 3,9 km/h (1 Bft) S 180 6,9 C 14,6 C 3,2 km/h (1 Bft)
12.05.2013 10:45 12,9 C 69 % 1017,7 hPa 0,0 l/m 5,3 km/h (1 Bft) S 180 7,4 C 14,3 C 7,2 km/h (2 Bft)
12.05.2013 10:50 13,5 C 59 % 1017,7 hPa 0,0 l/m 8,5 km/h (2 Bft) S-SW 202 5,6 C 12,9 C 18,2 km/h (3 Bft)
12.05.2013 10:55 12,6 C 65 % 1017,7 hPa 0,0 l/m 9,5 km/h (2 Bft) SO 135 6,2 C 11,1 C 17,4 km/h (3 Bft)
12.05.2013 11:00 11,9 C 67 % 1017,7 hPa 0,0 l/m 9,3 km/h (2 Bft) S 180 6,0 C 9,5 C 7,2 km/h (2 Bft)
12.05.2013 11:05 12,7 C 64 % 1017,8 hPa 0,0 l/m 8,9 km/h (2 Bft) S 180 6,1 C 10,2 C 12,7 km/h (3 Bft)
12.05.2013 11:10 11,3 C 68 % 1017,8 hPa 0,0 l/m 9,0 km/h (2 Bft) S-SW 202 5,6 C 9,4 C 15,3 km/h (3 Bft)
12.05.2013 11:15 11,0 C 71 % 1017,8 hPa 0,0 l/m 9,2 km/h (2 Bft) S-SW 202 5,9 C 7,9 C 10,0 km/h (2 Bft)
12.05.2013 11:20 12,0 C 69 % 1017,8 hPa 0,0 l/m 7,7 km/h (2 Bft) S 180 6,5 C 9,0 C 7,1 km/h (2 Bft)
12.05.2013 11:25 12,0 C 68 % 1018,1 hPa 0,0 l/m 7,2 km/h (2 Bft) S 180 6,3 C 10,2 C 8,7 km/h (2 Bft)
12.05.2013 11:30 11,9 C 68 % 1018,1 hPa 0,0 l/m 7,2 km/h (2 Bft) S 180 6,2 C 11,2 C 6,4 km/h (2 Bft)
12.05.2013 11:35 10,0 C 64 % 1018,1 hPa 0,0 l/m 9,8 km/h (2 Bft) S 180 3,5 C 8,4 C 25,4 km/h (4 Bft)
12.05.2013 11:40 7,8 C 71 % 1018,1 hPa 0,0 l/m 12,4 km/h (3 Bft) SO 135 2,9 C 2,5 C 9,7 km/h (2 Bft)
12.05.2013 11:45 7,5 C 76 % 1018,6 hPa 0,0 l/m 11,3 km/h (2 Bft) S-SW 202 3,5 C 2,0 C 6,8 km/h (2 Bft)
12.05.2013 11:50 7,2 C 80 % 1018,6 hPa 0,0 l/m 7,9 km/h (2 Bft) S-SO 157 4,0 C 3,9 C 11,7 km/h (2 Bft)
12.05.2013 11:55 6,9 C 84 % 1018,6 hPa 0,7 l/m 7,9 km/h (2 Bft) S-SO 157 4,4 C 3,7 C 8,7 km/h (2 Bft)
12.05.2013 12:00 6,7 C 86 % 1018,6 hPa 0,7 l/m 8,2 km/h (2 Bft) O 90 4,5 C 3,0 C 9,8 km/h (2 Bft)
12.05.2013 12:05 6,9 C 88 % 1018,6 hPa 0,0 l/m 7,9 km/h (2 Bft) SO 135 5,1 C 3,3 C 5,8 km/h (2 Bft)
12.05.2013 12:10 7,1 C 88 % 1018,6 hPa 0,7 l/m 7,4 km/h (2 Bft) O-SO 112 5,2 C 4,1 C 7,6 km/h (2 Bft)
12.05.2013 12:15 7,5 C 89 % 1018,6 hPa 0,0 l/m 7,2 km/h (2 Bft) S 180 5,8 C 4,6 C 6,1 km/h (2 Bft)
12.05.2013 12:20 7,4 C 89 % 1018,6 hPa 0,7 l/m 8,0 km/h (2 Bft) O-SO 112 5,7 C 4,0 C 10,3 km/h (2 Bft)
12.05.2013 12:25 7,6 C 89 % 1018,5 hPa 0,0 l/m 7,7 km/h (2 Bft) S-SW 202 5,9 C 4,6 C 7,9 km/h (2 Bft)
12.05.2013 12:30 7,3 C 88 % 1018,5 hPa 0,0 l/m 7,2 km/h (2 Bft) S 180 5,4 C 5,0 C 9,0 km/h (2 Bft)
12.05.2013 12:35 7,4 C 89 % 1018,5 hPa 0,7 l/m 8,2 km/h (2 Bft) S 180 5,7 C 3,9 C 13,2 km/h (3 Bft)
12.05.2013 12:40 7,4 C 89 % 1018,5 hPa 0,0 l/m 8,4 km/h (2 Bft) N 360 5,7 C 3,8 C 10,9 km/h (2 Bft)
12.05.2013 12:45 7,5 C 89 % 1018,6 hPa 0,0 l/m 7,4 km/h (2 Bft) SO 135 5,8 C 4,8 C 6,0 km/h (2 Bft)
12.05.2013 12:50 7,3 C 88 % 1018,6 hPa 0,7 l/m 7,7 km/h (2 Bft) S-SW 202 5,4 C 4,7 C 16,7 km/h (3 Bft)
12.05.2013 12:55 7,5 C 88 % 1018,6 hPa 0,0 l/m 8,9 km/h (2 Bft) S-SO 157 5,6 C 3,3 C 19,2 km/h (3 Bft)
12.05.2013 13:00 7,7 C 88 % 1018,6 hPa 0,0 l/m 10,5 km/h (2 Bft) SO 135 5,8 C 2,1 C 18,3 km/h (3 Bft)
12.05.2013 13:05 7,7 C 88 % 1018,6 hPa 0,0 l/m 10,1 km/h (2 Bft) S 180 5,8 C 2,7 C 12,9 km/h (3 Bft)
12.05.2013 13:10 7,8 C 88 % 1018,6 hPa 0,0 l/m 9,8 km/h (2 Bft) S-SO 157 5,9 C 3,1 C 16,3 km/h (3 Bft)
12.05.2013 13:15 7,9 C 88 % 1018,6 hPa 0,0 l/m 10,1 km/h (2 Bft) O-SO 112 6,0 C 3,0 C 13,7 km/h (3 Bft)
12.05.2013 13:20 7,7 C 86 % 1018,6 hPa 0,0 l/m 10,5 km/h (2 Bft) W 270 5,5 C 2,8 C 12,1 km/h (2 Bft)
12.05.2013 13:25 7,6 C 85 % 1018,8 hPa 0,0 l/m 11,9 km/h (2 Bft) O-SO 112 5,2 C 1,5 C 12,1 km/h (2 Bft)
12.05.2013 13:30 7,6 C 84 % 1018,8 hPa 0,0 l/m 12,4 km/h (3 Bft) S-SW 202 5,1 C 1,1 C 26,9 km/h (4 Bft)
12.05.2013 13:35 7,6 C 84 % 1018,8 hPa 0,0 l/m 12,1 km/h (2 Bft) SO 135 5,1 C 1,2 C 10,5 km/h (2 Bft)
12.05.2013 13:40 7,8 C 85 % 1018,8 hPa 0,0 l/m 11,1 km/h (2 Bft) W-SW 247 5,4 C 2,1 C 10,0 km/h (2 Bft)
12.05.2013 13:45 7,8 C 83 % 1018,8 hPa 0,0 l/m 10,5 km/h (2 Bft) S-SW 202 5,1 C 2,8 C 13,2 km/h (3 Bft)
12.05.2013 13:50 7,8 C 81 % 1018,8 hPa 0,0 l/m 12,1 km/h (2 Bft) S 180 4,7 C 1,7 C 30,6 km/h (5 Bft)
12.05.2013 13:55 8,4 C 83 % 1018,8 hPa 0,0 l/m 11,6 km/h (2 Bft) S 180 5,7 C 2,5 C 11,3 km/h (2 Bft)
12.05.2013 14:00 8,8 C 83 % 1018,8 hPa 0,0 l/m 8,5 km/h (2 Bft) O-NO 67 6,1 C 6,1 C 6,0 km/h (2 Bft)
12.05.2013 14:05 8,9 C 82 % 1018,4 hPa 0,0 l/m 8,5 km/h (2 Bft) SO 135 6,0 C 6,8 C 19,6 km/h (3 Bft)
12.05.2013 14:10 9,0 C 80 % 1018,4 hPa 0,0 l/m 9,8 km/h (2 Bft) S-SW 202 5,7 C 6,3 C 15,1 km/h (3 Bft)
12.05.2013 14:15 8,7 C 78 % 1018,4 hPa 0,0 l/m 11,3 km/h (2 Bft) S-SO 157 5,1 C 5,1 C 7,4 km/h (2 Bft)
12.05.2013 14:20 9,0 C 78 % 1018,4 hPa 0,0 l/m 11,3 km/h (2 Bft) S 180 5,4 C 5,4 C 13,8 km/h (3 Bft)
12.05.2013 14:25 8,9 C 78 % 1018,8 hPa 0,0 l/m 10,0 km/h (2 Bft) W-SW 247 5,3 C 6,4 C 6,6 km/h (2 Bft)
12.05.2013 14:30 9,0 C 79 % 1018,8 hPa 0,0 l/m 9,2 km/h (2 Bft) O-SO 112 5,6 C 7,1 C 15,4 km/h (3 Bft)
12.05.2013 14:35 8,8 C 78 % 1018,8 hPa 0,0 l/m 8,2 km/h (2 Bft) S 180 5,2 C 7,8 C 11,4 km/h (2 Bft)
12.05.2013 14:40 8,2 C 78 % 1018,8 hPa 0,0 l/m 10,1 km/h (2 Bft) S 180 4,6 C 5,0 C 10,0 km/h (2 Bft)
12.05.2013 14:45 7,9 C 80 % 1019,0 hPa 0,0 l/m 10,0 km/h (2 Bft) S-SW 202 4,7 C 4,1 C 11,4 km/h (2 Bft)
12.05.2013 14:50 7,1 C 83 % 1019,0 hPa 0,0 l/m 9,8 km/h (2 Bft) S 180 4,4 C 2,7 C 17,9 km/h (3 Bft)
12.05.2013 14:55 6,5 C 83 % 1019,0 hPa 0,7 l/m 11,3 km/h (2 Bft) S 180 3,8 C 0,5 C 11,6 km/h (2 Bft)
12.05.2013 15:00 6,0 C 83 % 1019,0 hPa 0,0 l/m 12,7 km/h (3 Bft) SW 225 3,3 C -1,5 C 11,1 km/h (2 Bft)
12.05.2013 15:05 6,0 C 85 % 1019,5 hPa 0,0 l/m 10,8 km/h (2 Bft) S-SW 202 3,7 C -0,1 C 14,3 km/h (3 Bft)
12.05.2013 15:10 6,1 C 85 % 1019,5 hPa 0,0 l/m 8,5 km/h (2 Bft) SO 135 3,8 C 2,0 C 10,0 km/h (2 Bft)
12.05.2013 15:15 6,3 C 87 % 1019,5 hPa 0,0 l/m 7,6 km/h (2 Bft) N-NW 337 4,3 C 3,3 C 8,0 km/h (2 Bft)
12.05.2013 15:20 6,3 C 87 % 1019,5 hPa 0,0 l/m 8,5 km/h (2 Bft) S-SO 157 4,3 C 2,3 C 14,8 km/h (3 Bft)
12.05.2013 15:25 6,7 C 88 % 1019,4 hPa 0,0 l/m 8,9 km/h (2 Bft) S-SW 202 4,9 C 2,2 C 7,7 km/h (2 Bft)
12.05.2013 15:30 7,0 C 88 % 1019,4 hPa 0,0 l/m 6,3 km/h (2 Bft) O-SO 112 5,2 C 5,6 C 7,1 km/h (2 Bft)
12.05.2013 15:35 7,0 C 88 % 1019,4 hPa 0,0 l/m 6,3 km/h (2 Bft) S 180 5,2 C 5,7 C 8,0 km/h (2 Bft)
12.05.2013 15:40 7,7 C 88 % 1019,4 hPa 0,0 l/m 6,3 km/h (2 Bft) S-SW 202 5,8 C 6,5 C 12,4 km/h (3 Bft)
12.05.2013 15:45 8,0 C 87 % 1019,4 hPa 0,0 l/m 6,6 km/h (2 Bft) S 180 6,0 C 6,6 C 6,6 km/h (2 Bft)
12.05.2013 15:50 8,7 C 87 % 1019,4 hPa 0,0 l/m 6,4 km/h (2 Bft) S-SO 157 6,7 C 7,6 C 5,1 km/h (1 Bft)
12.05.2013 15:55 9,1 C 85 % 1019,4 hPa 0,0 l/m 5,6 km/h (1 Bft) S 180 6,7 C 8,7 C 11,4 km/h (2 Bft)
12.05.2013 16:00 9,3 C 84 % 1019,4 hPa 0,0 l/m 7,1 km/h (2 Bft) S-SO 157 6,7 C 8,6 C 13,2 km/h (3 Bft)
12.05.2013 16:05 8,3 C 81 % 1019,5 hPa 0,0 l/m 7,9 km/h (2 Bft) S 180 5,2 C 7,6 C 10,8 km/h (2 Bft)
12.05.2013 16:10 8,3 C 82 % 1019,5 hPa 0,0 l/m 8,4 km/h (2 Bft) S-SO 157 5,4 C 6,5 C 14,6 km/h (3 Bft)
12.05.2013 16:15 8,2 C 83 % 1019,5 hPa 0,0 l/m 10,1 km/h (2 Bft) S-SW 202 5,5 C 4,3 C 16,7 km/h (3 Bft)
12.05.2013 16:20 8,0 C 83 % 1019,5 hPa 0,0 l/m 11,4 km/h (2 Bft) O-SO 112 5,3 C 2,4 C 10,9 km/h (2 Bft)
12.05.2013 16:25 8,1 C 84 % 1019,6 hPa 0,0 l/m 10,3 km/h (2 Bft) SO 135 5,6 C 3,3 C 9,3 km/h (2 Bft)
12.05.2013 16:30 8,5 C 85 % 1019,6 hPa 0,0 l/m 7,4 km/h (2 Bft) S 180 6,1 C 6,7 C 7,7 km/h (2 Bft)
12.05.2013 16:35 8,6 C 83 % 1019,6 hPa 0,0 l/m 7,2 km/h (2 Bft) S-SO 157 5,9 C 7,2 C 10,5 km/h (2 Bft)
12.05.2013 16:40 9,0 C 82 % 1019,6 hPa 0,0 l/m 7,7 km/h (2 Bft) S-SW 202 6,1 C 7,3 C 11,9 km/h (2 Bft)
12.05.2013 16:45 8,5 C 82 % 1019,7 hPa 0,0 l/m 8,5 km/h (2 Bft) S 180 5,6 C 6,5 C 10,5 km/h (2 Bft)
12.05.2013 16:50 8,1 C 84 % 1019,7 hPa 0,0 l/m 7,1 km/h (2 Bft) S 180 5,6 C 7,2 C 6,9 km/h (2 Bft)
12.05.2013 16:55 7,9 C 84 % 1019,7 hPa 0,0 l/m 6,6 km/h (2 Bft) S 180 5,4 C 7,5 C 15,4 km/h (3 Bft)
12.05.2013 17:00 8,4 C 82 % 1019,7 hPa 0,0 l/m 6,6 km/h (2 Bft) S-SO 157 5,5 C 7,7 C 11,1 km/h (2 Bft)
12.05.2013 17:05 8,1 C 82 % 1019,7 hPa 0,0 l/m 7,4 km/h (2 Bft) S-SO 157 5,2 C 6,8 C 10,1 km/h (2 Bft)
12.05.2013 17:10 7,4 C 83 % 1019,7 hPa 0,0 l/m 7,9 km/h (2 Bft) S 180 4,7 C 5,7 C 11,4 km/h (2 Bft)
12.05.2013 17:15 7,2 C 83 % 1019,7 hPa 0,0 l/m 8,4 km/h (2 Bft) S 180 4,5 C 4,7 C 5,5 km/h (1 Bft)
12.05.2013 17:20 6,9 C 84 % 1019,7 hPa 0,0 l/m 8,2 km/h (2 Bft) O 90 4,4 C 4,1 C 8,4 km/h (2 Bft)
12.05.2013 17:25 6,8 C 85 % 1019,8 hPa 0,0 l/m 7,2 km/h (2 Bft) S 180 4,5 C 4,7 C 6,9 km/h (2 Bft)
12.05.2013 17:30 7,0 C 87 % 1019,8 hPa 0,0 l/m 5,6 km/h (1 Bft) S 180 5,0 C 5,8 C 4,0 km/h (1 Bft)
12.05.2013 17:35 7,2 C 87 % 1019,8 hPa 0,0 l/m 5,1 km/h (1 Bft) S-SO 157 5,2 C 6,3 C 6,0 km/h (2 Bft)
12.05.2013 17:40 8,2 C 86 % 1019,8 hPa 0,0 l/m 4,3 km/h (1 Bft) S-SW 202 6,0 C 8,5 C 8,7 km/h (2 Bft)
12.05.2013 17:45 8,5 C 85 % 1019,8 hPa 0,0 l/m 4,8 km/h (1 Bft) S 180 6,1 C 9,5 C 6,4 km/h (2 Bft)
12.05.2013 17:50 8,5 C 84 % 1019,8 hPa 0,0 l/m 6,0 km/h (2 Bft) S-SO 157 6,0 C 9,8 C 9,3 km/h (2 Bft)
12.05.2013 17:55 8,3 C 83 % 1019,8 hPa 0,0 l/m 6,4 km/h (2 Bft) S-SO 157 5,6 C 9,4 C 4,3 km/h (1 Bft)
12.05.2013 18:00 8,4 C 77 % 1019,8 hPa 0,0 l/m 7,1 km/h (2 Bft) S 180 4,6 C 10,3 C 10,6 km/h (2 Bft)
12.05.2013 18:05 7,9 C 77 % 1019,8 hPa 0,0 l/m 8,2 km/h (2 Bft) SO 135 4,1 C 9,9 C 12,6 km/h (3 Bft)
12.05.2013 18:10 8,1 C 82 % 1019,8 hPa 0,0 l/m 9,2 km/h (2 Bft) N 360 5,2 C 8,4 C 10,1 km/h (2 Bft)
12.05.2013 18:15 8,0 C 80 % 1019,8 hPa 0,0 l/m 9,7 km/h (2 Bft) S 180 4,8 C 8,5 C 16,1 km/h (3 Bft)
12.05.2013 18:20 8,3 C 80 % 1019,8 hPa 0,0 l/m 8,5 km/h (2 Bft) S-SO 157 5,1 C 9,7 C 7,7 km/h (2 Bft)
12.05.2013 18:25 8,0 C 79 % 1019,7 hPa 0,0 l/m 8,4 km/h (2 Bft) O-NO 67 4,6 C 9,6 C 10,1 km/h (2 Bft)
12.05.2013 18:30 7,9 C 78 % 1019,7 hPa 0,0 l/m 7,2 km/h (2 Bft) S 180 4,3 C 9,5 C 7,6 km/h (2 Bft)
12.05.2013 18:35 8,4 C 79 % 1019,7 hPa 0,0 l/m 6,4 km/h (2 Bft) S 180 5,0 C 10,6 C 6,1 km/h (2 Bft)
12.05.2013 18:40 8,8 C 76 % 1019,7 hPa 0,0 l/m 7,7 km/h (2 Bft) S 180 4,8 C 10,6 C 10,9 km/h (2 Bft)
12.05.2013 18:45 8,7 C 75 % 1019,8 hPa 0,0 l/m 8,2 km/h (2 Bft) S 180 4,5 C 10,6 C 13,5 km/h (3 Bft)
12.05.2013 18:50 8,2 C 72 % 1019,8 hPa 0,0 l/m 8,7 km/h (2 Bft) S 180 3,5 C 8,6 C 16,4 km/h (3 Bft)
12.05.2013 18:55 7,8 C 77 % 1019,8 hPa 0,0 l/m 7,7 km/h (2 Bft) NW 315 4,0 C 8,1 C 5,3 km/h (1 Bft)
12.05.2013 19:00 7,3 C 78 % 1019,8 hPa 0,0 l/m 6,0 km/h (2 Bft) SO 135 3,7 C 8,0 C 3,4 km/h (1 Bft)
12.05.2013 19:05 7,2 C 79 % 1019,8 hPa 0,0 l/m 5,1 km/h (1 Bft) S 180 3,8 C 7,6 C 5,0 km/h (1 Bft)
12.05.2013 19:10 7,2 C 81 % 1019,8 hPa 0,0 l/m 3,2 km/h (1 Bft) S 180 4,2 C 7,7 C 2,1 km/h (1 Bft)
12.05.2013 19:15 7,0 C 82 % 1019,8 hPa 0,0 l/m 3,2 km/h (1 Bft) S-SO 157 4,1 C 7,5 C 3,4 km/h (1 Bft)
12.05.2013 19:20 7,0 C 82 % 1019,8 hPa 0,0 l/m 3,2 km/h (1 Bft) NO 45 4,1 C 7,3 C 7,9 km/h (2 Bft)
12.05.2013 19:25 6,8 C 78 % 1020,4 hPa 0,0 l/m 5,6 km/h (1 Bft) S-SW 202 3,2 C 6,4 C 18,5 km/h (3 Bft)
12.05.2013 19:30 5,2 C 78 % 1020,4 hPa 0,0 l/m 10,3 km/h (2 Bft) S 180 1,7 C 0,4 C 16,7 km/h (3 Bft)
12.05.2013 19:35 3,9 C 80 % 1020,4 hPa 0,7 l/m 12,1 km/h (2 Bft) S-SW 202 0,8 C -3,0 C 8,7 km/h (2 Bft)
12.05.2013 19:40 3,5 C 85 % 1020,4 hPa 0,7 l/m 9,2 km/h (2 Bft) W-SW 247 1,2 C -1,6 C 10,9 km/h (2 Bft)
12.05.2013 19:45 3,5 C 87 % 1020,6 hPa 0,0 l/m 7,4 km/h (2 Bft) S 180 1,5 C 0,1 C 10,3 km/h (2 Bft)
12.05.2013 19:50 3,4 C 89 % 1020,6 hPa 0,7 l/m 7,9 km/h (2 Bft) S 180 1,8 C -0,7 C 7,4 km/h (2 Bft)
12.05.2013 19:55 3,5 C 90 % 1020,6 hPa 0,7 l/m 6,8 km/h (2 Bft) O-SO 112 2,0 C 1,0 C 4,5 km/h (1 Bft)
12.05.2013 20:00 3,4 C 91 % 1020,6 hPa 0,7 l/m 4,7 km/h (1 Bft) S 180 2,1 C 2,4 C 7,1 km/h (2 Bft)
12.05.2013 20:05 3,5 C 91 % 1020,8 hPa 0,0 l/m 4,7 km/h (1 Bft) S 180 2,2 C 2,3 C 7,7 km/h (2 Bft)
12.05.2013 20:10 3,3 C 92 % 1020,8 hPa 0,0 l/m 4,8 km/h (1 Bft) S 180 2,1 C 2,1 C 6,9 km/h (2 Bft)
12.05.2013 20:15 3,2 C 92 % 1020,8 hPa 0,0 l/m 4,2 km/h (1 Bft) O-SO 112 2,0 C 2,3 C 4,5 km/h (1 Bft)
12.05.2013 20:20 3,3 C 93 % 1020,8 hPa 0,0 l/m 4,2 km/h (1 Bft) SO 135 2,3 C 2,3 C 5,3 km/h (1 Bft)
12.05.2013 20:25 3,4 C 93 % 1020,8 hPa 0,0 l/m 5,0 km/h (1 Bft) O 90 2,4 C 2,1 C 6,9 km/h (2 Bft)
12.05.2013 20:30 3,6 C 93 % 1020,8 hPa 0,0 l/m 5,6 km/h (1 Bft) S-SO 157 2,6 C 2,0 C 9,8 km/h (2 Bft)
12.05.2013 20:35 3,7 C 94 % 1020,8 hPa 0,0 l/m 6,8 km/h (2 Bft) S 180 2,8 C 1,4 C 13,4 km/h (3 Bft)
12.05.2013 20:40 3,8 C 94 % 1020,8 hPa 0,0 l/m 9,2 km/h (2 Bft) S-SO 157 2,9 C -1,2 C 11,4 km/h (2 Bft)
12.05.2013 20:45 3,7 C 94 % 1020,7 hPa 0,0 l/m 10,5 km/h (2 Bft) O-SO 112 2,8 C -2,9 C 6,6 km/h (2 Bft)
12.05.2013 20:50 3,4 C 94 % 1020,7 hPa 0,0 l/m 9,3 km/h (2 Bft) O-SO 112 2,5 C -2,0 C 9,5 km/h (2 Bft)
12.05.2013 20:55 3,3 C 94 % 1020,7 hPa 0,0 l/m 7,4 km/h (2 Bft) S 180 2,4 C 0,1 C 5,0 km/h (1 Bft)
12.05.2013 21:00 3,3 C 94 % 1020,7 hPa 0,0 l/m 5,8 km/h (2 Bft) SW 225 2,4 C 1,6 C 3,7 km/h (1 Bft)
12.05.2013 21:05 3,3 C 94 % 1020,6 hPa 0,0 l/m 5,0 km/h (1 Bft) S 180 2,4 C 1,9 C 8,0 km/h (2 Bft)
12.05.2013 21:10 3,3 C 94 % 1020,6 hPa 0,0 l/m 3,7 km/h (1 Bft) SO 135 2,4 C 2,4 C 4,7 km/h (1 Bft)
12.05.2013 21:15 3,2 C 95 % 1020,6 hPa 0,0 l/m 3,1 km/h (1 Bft) N-NO 22 2,5 C 2,8 C 5,1 km/h (1 Bft)
12.05.2013 21:20 3,3 C 95 % 1020,6 hPa 0,0 l/m 1,6 km/h (1 Bft) S 180 2,6 C 3,0 C 0,0 km/h (0 Bft)
12.05.2013 21:25 3,3 C 95 % 1020,7 hPa 0,0 l/m 0,8 km/h (0 Bft) N 360 2,6 C 3,0 C 0,0 km/h (0 Bft)
12.05.2013 21:30 3,3 C 95 % 1020,7 hPa 0,0 l/m 0,2 km/h (0 Bft) NO 45 2,6 C 3,0 C 0,0 km/h (0 Bft)
12.05.2013 21:35 3,3 C 95 % 1020,7 hPa 0,0 l/m 0,3 km/h (0 Bft) SO 135 2,6 C 3,0 C 0,0 km/h (0 Bft)
12.05.2013 21:40 3,3 C 95 % 1020,7 hPa 0,0 l/m 0,3 km/h (0 Bft) NO 45 2,6 C 3,0 C 0,0 km/h (0 Bft)
12.05.2013 21:45 3,3 C 95 % 1020,9 hPa 0,0 l/m 0,3 km/h (0 Bft) N-NO 22 2,6 C 3,0 C 0,0 km/h (0 Bft)
12.05.2013 21:50 3,3 C 95 % 1020,9 hPa 0,0 l/m 0,2 km/h (0 Bft) W-SW 247 2,6 C 3,1 C 0,0 km/h (0 Bft)
12.05.2013 21:55 3,4 C 95 % 1020,9 hPa 0,0 l/m 0,3 km/h (0 Bft) NO 45 2,7 C 3,1 C 0,0 km/h (0 Bft)
12.05.2013 22:00 3,5 C 96 % 1020,9 hPa 0,7 l/m 0,3 km/h (0 Bft) W-NW 292 2,9 C 3,1 C 0,0 km/h (0 Bft)
12.05.2013 22:05 3,4 C 96 % 1021,2 hPa 0,0 l/m 0,2 km/h (0 Bft) NO 45 2,8 C 3,2 C 0,0 km/h (0 Bft)
12.05.2013 22:10 3,4 C 96 % 1021,2 hPa 0,0 l/m 0,3 km/h (0 Bft) W-SW 247 2,8 C 3,1 C 2,1 km/h (1 Bft)
12.05.2013 22:15 3,3 C 96 % 1021,2 hPa 0,7 l/m 1,1 km/h (1 Bft) W-NW 292 2,7 C 3,1 C 2,4 km/h (1 Bft)
12.05.2013 22:20 3,2 C 96 % 1021,2 hPa 0,0 l/m 1,9 km/h (1 Bft) S 180 2,6 C 3,1 C 2,1 km/h (1 Bft)
12.05.2013 22:25 3,1 C 96 % 1021,7 hPa 0,0 l/m 2,3 km/h (1 Bft) W-NW 292 2,5 C 3,0 C 4,0 km/h (1 Bft)
12.05.2013 22:30 3,1 C 96 % 1021,7 hPa 0,0 l/m 2,9 km/h (1 Bft) O-SO 112 2,5 C 2,7 C 2,9 km/h (1 Bft)
12.05.2013 22:35 3,0 C 96 % 1021,7 hPa 0,0 l/m 2,3 km/h (1 Bft) S-SO 157 2,4 C 2,7 C 3,2 km/h (1 Bft)
12.05.2013 22:40 2,9 C 96 % 1021,7 hPa 0,7 l/m 1,6 km/h (1 Bft) SO 135 2,3 C 2,6 C 3,1 km/h (1 Bft)
12.05.2013 22:45 2,9 C 97 % 1021,8 hPa 0,0 l/m 2,1 km/h (1 Bft) NO 45 2,5 C 2,6 C 0,0 km/h (0 Bft)
12.05.2013 22:50 3,0 C 96 % 1021,8 hPa 0,0 l/m 1,1 km/h (1 Bft) NO 45 2,4 C 2,6 C 0,0 km/h (0 Bft)
12.05.2013 22:55 3,0 C 96 % 1021,8 hPa 0,0 l/m 0,2 km/h (0 Bft) S 180 2,4 C 2,6 C 0,0 km/h (0 Bft)
12.05.2013 23:00 3,1 C 96 % 1021,8 hPa 0,0 l/m 0,3 km/h (0 Bft) W-SW 247 2,5 C 2,7 C 2,6 km/h (1 Bft)
12.05.2013 23:05 3,1 C 96 % 1021,6 hPa 0,0 l/m 0,5 km/h (0 Bft) S 180 2,5 C 2,7 C 0,0 km/h (0 Bft)
12.05.2013 23:10 3,1 C 96 % 1021,6 hPa 0,0 l/m 1,0 km/h (0 Bft) S-SW 202 2,5 C 2,7 C 3,5 km/h (1 Bft)
12.05.2013 23:15 3,0 C 96 % 1021,6 hPa 0,0 l/m 0,8 km/h (0 Bft) O 90 2,4 C 2,7 C 0,0 km/h (0 Bft)
12.05.2013 23:20 3,1 C 96 % 1021,6 hPa 0,0 l/m 1,0 km/h (0 Bft) O-SO 112 2,5 C 2,7 C 0,0 km/h (0 Bft)
12.05.2013 23:25 3,2 C 96 % 1021,6 hPa 0,0 l/m 0,6 km/h (0 Bft) SO 135 2,6 C 2,8 C 0,0 km/h (0 Bft)
12.05.2013 23:30 3,3 C 96 % 1021,6 hPa 0,0 l/m 0,3 km/h (0 Bft) N-NO 22 2,7 C 3,0 C 0,0 km/h (0 Bft)
12.05.2013 23:35 3,4 C 96 % 1021,6 hPa 0,7 l/m 0,2 km/h (0 Bft) S-SO 157 2,8 C 3,0 C 0,0 km/h (0 Bft)
12.05.2013 23:40 3,4 C 96 % 1021,6 hPa 0,0 l/m 0,0 km/h (0 Bft) O-SO 112 2,8 C 3,1 C 0,0 km/h (0 Bft)
12.05.2013 23:45 3,4 C 96 % 1021,6 hPa 0,0 l/m 0,0 km/h (0 Bft) N 360 2,8 C 3,1 C 0,0 km/h (0 Bft)
12.05.2013 23:50 3,4 C 96 % 1021,6 hPa 0,0 l/m 0,0 km/h (0 Bft) N 360 2,8 C 3,1 C 0,0 km/h (0 Bft)
12.05.2013 23:55 3,4 C 96 % 1021,6 hPa 0,0 l/m 0,0 km/h (0 Bft) W-NW 292 2,8 C 3,1 C 0,0 km/h (0 Bft)
_ Min-Zeit 06:15 10:50 05:40 - 23:55 - - 19:35 19:35 23:55
Minimum _ 2,6 C 59 % 1016,8 hPa - 0,0 km/h (0 Bft) - - 0,8 C -3,0 C 0,0 km/h (0 Bft)
_ Max-Zeit 10:20 22:45 23:00 23:35 15:00 - - 10:25 10:40 13:50
Maximum _ 13,7 C 97 % 1021,8 hPa 0,7 l/m 12,7 km/h
SW (3 Bft)
- - 8,9 C 14,6 C 30,6 km/h
S (5 Bft)
Durchschnitt _ 6,5 C 89 % 1018,8 hPa #11,0 l/m 4,2 km/h (1 Bft) S - 4,8 C 5,4 C 5,5 km/h (1 Bft)